User: anonymous   Login
Location: Hradec Kralove
(50.2170°N, 15.8330°E)
Time: 19:52:20
(UTC+01:00)
Language:

Transit 2A - Orbit

View from above orbital plane
View from above orbital plane
View from above satellite
View from above satellite

Ground track
Ground track

The orbit data is extracted from the following two-line orbital elements,

1    45U 60007A   23038.16386106  .00001154  00000-0  30998-3 0  9992
2    45  66.6958 358.2400 0258108 331.8749  26.8603 14.34049247261004
Epoch (UTC): 07 February 2023 03:55:57
Eccentricity: 0.0258108
inclination: 66.6958°
perigee height: 593 km
apogee height: 963 km
right ascension of ascending node: 358.2400°
argument of perigee: 331.8749°
revolutions per day: 14.34049247
mean anomaly at epoch: 26.8603°
orbit number at epoch: 26100

The dashed part of the orbit path shows where the satellite is in the earth's shadow,  

DLR